Погода в Лохья

Финляндия     60°14′48″N   24°04′18″E
темп.,
°C
ветер,
м/с
пор.,
м/с
влажн.,
%
обл.,
%
осадки,
мм/ч
давл.,
гПа
погр.,
м
27 ноября, сб
сб2723:00−3всв2667100 0.0 1002381
02:00−4св266880 0.0 1003340
05:00−5всв37721 0.0 1004316
08:00−5св397375 0.0 1005362
11:00−5всв3106139 0.0 1006411
14:00−4св41157100 0.0 1005474
17:00−5св41267100 0.0 1006547
20:00−5св41370100 0.0 1005572
28 ноября, вс
вс2823:00−5св41369100 0.0 1005528
02:00−5св41267100 0.0 1004528
05:00−5св41266100 0.0 1004568
08:00−5св41159100 0.0 1004564
11:00−4св41053100 0.0 1005547
14:00−4св3857100 0.0 1005590
17:00−5всв3865100 0.0 1007580
20:00−5св377399 0.0 1007459
29 ноября, пн
пн2923:00−5св487393 0.0 1008482
02:00−5св497373 0.0 1008402
05:00−5св4107578 0.0 1007419
08:00−6св41177100 0.0 1006416
11:00−5св41076100 0.0 1006432
14:00−5св41073100 0.0 1003498
17:00−5св4976100 0.0 1001617
20:00−5ссв41076100 0.0 999710
30 ноября, вт
вт3023:00−6ссв41073100 0.0 996664
02:00−6ссв51168100 0.0 993659
05:00−6с51074100 0.0 991664
08:00−6с5117391 0.0 990644
11:00−6ссз5107499 0.0 990688
14:00−7ссз4107299 0.0 989586
17:00−8ссз4107346 0.0 990528
20:00−9сз4117646 0.0 990525
1 декабря, ср
ср123:00−9ссз412765 0.0 991536
02:00−8сз412755 0.0 993509
05:00−8сз4127410 0.0 994543
08:00−8сз298410 0.0 995310
11:00−7з25836 0.0 996184
14:00−6зюз117783 0.0 99630
17:00−7ююв117599 0.0 99510
20:00−6всв2276100 0.1 99447